AAL1220 KMRY-KSFO

Flight info

Callsign AAL1220
Flight time 0h 18m
Altitude 10000
Route SANTY EDDYY
Aircraft B38M/M-SDE1FGHILORVWXY/HB1

Departure

Time 2026-04-25 06:02
Airport Monterey Regional Airport (KMRY)

Arrival

Time 2026-04-25 06:20
Airport San Francisco International Airport (KSFO)
Time Latitude Longitude Altitude Speed Heading
2026-04-25 05:28 36.58723 -121.84861 222 ft 0 kts 240°
2026-04-25 05:43 36.58724 -121.84859 219 ft 2 kts 240°
2026-04-25 05:43 36.58733 -121.84843 213 ft 2 kts 192°
2026-04-25 05:43 36.58749 -121.84845 218 ft 2 kts 147°
2026-04-25 05:44 36.58758 -121.84853 216 ft 2 kts 128°
2026-04-25 05:44 36.58763 -121.84863 214 ft 0 kts 114°
2026-04-25 05:54 36.58755 -121.84842 213 ft 4 kts 113°
2026-04-25 05:55 36.58749 -121.84824 219 ft 0 kts 113°
2026-04-25 05:55 36.58739 -121.84793 221 ft 8 kts 111°
2026-04-25 05:55 36.58732 -121.84772 213 ft 0 kts 111°
2026-04-25 05:56 36.58718 -121.84729 217 ft 14 kts 112°
2026-04-25 05:56 36.58669 -121.84616 212 ft 16 kts 124°
2026-04-25 05:56 36.58622 -121.84493 216 ft 16 kts 112°
2026-04-25 05:57 36.58577 -121.84358 214 ft 18 kts 112°
2026-04-25 05:57 36.58528 -121.84213 216 ft 19 kts 112°
2026-04-25 05:57 36.58479 -121.84068 221 ft 18 kts 112°
2026-04-25 05:57 36.58431 -121.83927 218 ft 18 kts 112°
2026-04-25 05:58 36.58384 -121.83786 213 ft 18 kts 113°
2026-04-25 05:58 36.58336 -121.83646 221 ft 18 kts 113°
2026-04-25 05:58 36.58291 -121.83503 218 ft 13 kts 104°
2026-04-25 05:58 36.58289 -121.83488 218 ft 0 kts 99°
2026-04-25 05:59 36.58286 -121.83455 214 ft 10 kts 94°
2026-04-25 05:59 36.58310 -121.83363 214 ft 11 kts 31°
2026-04-25 05:59 36.58336 -121.83365 217 ft 2 kts 327°
2026-04-25 06:00 36.58345 -121.83386 210 ft 0 kts 293°
2026-04-25 06:00 36.58363 -121.83437 214 ft 27 kts 293°
2026-04-25 06:00 36.58516 -121.83899 221 ft 87 kts 291°
2026-04-25 06:01 36.58821 -121.84791 218 ft 135 kts 291°
2026-04-25 06:01 36.59205 -121.85978 315 ft 156 kts 291°
2026-04-25 06:01 36.59598 -121.87240 525 ft 157 kts 291°
2026-04-25 06:01 36.60113 -121.88464 746 ft 161 kts 304°
2026-04-25 06:02 36.60907 -121.89413 1141 ft 154 kts 323°
2026-04-25 06:02 36.61719 -121.90340 1286 ft 159 kts 316°
2026-04-25 06:02 36.62748 -121.90945 1448 ft 163 kts 339°
2026-04-25 06:02 36.63793 -121.91330 1889 ft 150 kts 341°
2026-04-25 06:03 36.64739 -121.91648 2296 ft 135 kts 342°
2026-04-25 06:03 36.65601 -121.91927 2570 ft 129 kts 342°
2026-04-25 06:03 36.66497 -121.92230 2587 ft 140 kts 341°
2026-04-25 06:03 36.67521 -121.92580 2486 ft 163 kts 341°
2026-04-25 06:04 36.68640 -121.92965 2650 ft 169 kts 341°
2026-04-25 06:04 36.69790 -121.93371 2839 ft 175 kts 342°
2026-04-25 06:04 36.70949 -121.93909 3029 ft 184 kts 325°
2026-04-25 06:04 36.71869 -121.95059 3237 ft 196 kts 326°
2026-04-25 06:05 36.73187 -121.95565 3567 ft 205 kts 347°
2026-04-25 06:05 36.74589 -121.96024 3913 ft 210 kts 340°
2026-04-25 06:05 36.75970 -121.96661 4329 ft 214 kts 336°
2026-04-25 06:05 36.77369 -121.97363 4733 ft 218 kts 336°
2026-04-25 06:06 36.78799 -121.98062 5122 ft 223 kts 337°
2026-04-25 06:06 36.80247 -121.98757 5501 ft 227 kts 337°
2026-04-25 06:06 36.81738 -121.99474 5894 ft 231 kts 337°
2026-04-25 06:06 36.83250 -122.00204 6270 ft 234 kts 337°
2026-04-25 06:07 36.84779 -122.00944 6644 ft 237 kts 338°
2026-04-25 06:07 36.86326 -122.01691 7020 ft 240 kts 338°
2026-04-25 06:07 36.87886 -122.02446 7386 ft 242 kts 338°
2026-04-25 06:07 36.89458 -122.03206 7752 ft 243 kts 338°
2026-04-25 06:08 36.91040 -122.03971 8128 ft 244 kts 338°
2026-04-25 06:08 36.92628 -122.04740 8514 ft 245 kts 338°
2026-04-25 06:08 36.94226 -122.05514 8898 ft 246 kts 338°
2026-04-25 06:08 36.95824 -122.06288 9289 ft 246 kts 338°
2026-04-25 06:09 36.97424 -122.07060 9676 ft 246 kts 340°
2026-04-25 06:09 36.99099 -122.07473 9959 ft 250 kts 354°
2026-04-25 06:09 37.00881 -122.07664 9979 ft 264 kts 355°
2026-04-25 06:09 37.02732 -122.07854 9985 ft 276 kts 355°
2026-04-25 06:10 37.04706 -122.08080 9984 ft 286 kts 354°
2026-04-25 06:10 37.06699 -122.08317 9964 ft 301 kts 354°
2026-04-25 06:10 37.08811 -122.08562 9955 ft 300 kts 354°
2026-04-25 06:10 37.10858 -122.08795 9987 ft 290 kts 354°
2026-04-25 06:11 37.12888 -122.09028 9997 ft 294 kts 354°
2026-04-25 06:11 37.14925 -122.09264 9993 ft 295 kts 354°
2026-04-25 06:11 37.16965 -122.09500 9997 ft 294 kts 354°
2026-04-25 06:11 37.18999 -122.09734 10000 ft 294 kts 354°
2026-04-25 06:12 37.21036 -122.09969 9998 ft 293 kts 354°
2026-04-25 06:12 37.23070 -122.10204 9994 ft 294 kts 354°
2026-04-25 06:12 37.25109 -122.10440 9997 ft 293 kts 354°
2026-04-25 06:12 37.27130 -122.10674 9404 ft 291 kts 354°
2026-04-25 06:13 37.29162 -122.10908 8323 ft 297 kts 354°
2026-04-25 06:13 37.31215 -122.11145 7383 ft 295 kts 354°
2026-04-25 06:13 37.33241 -122.11380 6537 ft 289 kts 354°
2026-04-25 06:14 37.37124 -122.11842 6017 ft 274 kts 351°
2026-04-25 06:14 37.38996 -122.12396 6014 ft 277 kts 344°
2026-04-25 06:14 37.40858 -122.13026 5786 ft 277 kts 344°
2026-04-25 06:14 37.42716 -122.13663 5537 ft 277 kts 343°
2026-04-25 06:15 37.44568 -122.14302 5294 ft 276 kts 343°
2026-04-25 06:15 37.46423 -122.14932 5047 ft 275 kts 343°
2026-04-25 06:15 37.48276 -122.15535 4809 ft 273 kts 345°
2026-04-25 06:15 37.50126 -122.16136 4270 ft 275 kts 344°
2026-04-25 06:16 37.51969 -122.16747 3799 ft 273 kts 343°
2026-04-25 06:16 37.53641 -122.17771 3365 ft 266 kts 313°
2026-04-25 06:16 37.54622 -122.19636 3002 ft 256 kts 296°
2026-04-25 06:16 37.55423 -122.21554 2596 ft 238 kts 295°
2026-04-25 06:17 37.56171 -122.23349 2255 ft 225 kts 296°
2026-04-25 06:17 37.56882 -122.25039 1918 ft 212 kts 296°
2026-04-25 06:17 37.57543 -122.26609 1669 ft 190 kts 296°
2026-04-25 06:17 37.58119 -122.27997 1417 ft 166 kts 296°
2026-04-25 06:18 37.58619 -122.29185 1175 ft 144 kts 296°
2026-04-25 06:18 37.59087 -122.30300 1004 ft 138 kts 295°
2026-04-25 06:18 37.59524 -122.31343 825 ft 133 kts 296°
2026-04-25 06:18 37.59967 -122.32415 659 ft 139 kts 297°
2026-04-25 06:19 37.60407 -122.33468 479 ft 137 kts 298°
2026-04-25 06:19 37.60844 -122.34507 261 ft 128 kts 298°
2026-04-25 06:19 37.61237 -122.35423 67 ft 111 kts 299°
2026-04-25 06:19 37.61576 -122.36214 19 ft 91 kts 297°
2026-04-25 06:20 37.61793 -122.36767 18 ft 55 kts 297°
2026-04-25 06:20 37.61945 -122.37132 15 ft 40 kts 298°
2026-04-25 06:20 37.62053 -122.37391 16 ft 29 kts 297°
2026-04-25 06:20 37.62154 -122.37637 21 ft 29 kts 298°
2026-04-25 06:21 37.62208 -122.37844 21 ft 21 kts 279°
2026-04-25 06:21 37.62219 -122.37992 24 ft 13 kts 275°
2026-04-25 06:21 37.62226 -122.38079 27 ft 7 kts 276°
2026-04-25 06:21 37.62227 -122.38093 29 ft 0 kts 276°
2026-04-25 06:22 37.62230 -122.38185 27 ft 12 kts 264°
2026-04-25 06:23 37.62199 -122.38276 21 ft 14 kts 235°
2026-04-25 06:23 37.62124 -122.38324 22 ft 10 kts 195°
2026-04-25 06:23 37.62078 -122.38340 24 ft 4 kts 196°
2026-04-25 06:23 37.62069 -122.38344 25 ft 1 kts 197°
2026-04-25 06:24 37.62003 -122.38379 24 ft 11 kts 214°
2026-04-25 06:24 37.61974 -122.38414 22 ft 0 kts 226°